| time (UTC) | temp C | wind direction | speed KPH | gust KPH | rain 1hr cm | rain 24hr cm | rain mn cm | humidity % | barometer mb |
| 20260906164520 | 36 | 89 | 0.0 | 3.2 | 0.00 | 0.03 | 0.00 | 46 | 1017.1 |
| 20260906163024 | 35 | 148 | 3.2 | 16.1 | 0.00 | 0.03 | 0.00 | 50 | 1017.3 |
| 20260906161525 | 34 | 67 | 1.6 | 9.7 | 0.00 | 0.03 | 0.00 | 53 | 1017.3 |
| 20260906160032 | 33 | 209 | 3.2 | 11.3 | 0.00 | 0.03 | 0.00 | 53 | 1017.2 |
| 20260906154511 | 33 | 116 | 1.6 | 11.3 | 0.00 | 0.03 | 0.00 | 56 | 1017.1 |
| 20260906153003 | 32 | 210 | 3.2 | 8.0 | 0.00 | 0.03 | 0.00 | 58 | 1017.2 |
| 20260906151504 | 32 | 167 | 4.8 | 14.5 | 0.00 | 0.03 | 0.00 | 59 | 1017.0 |
| 20260906150007 | 32 | 205 | 3.2 | 11.3 | 0.00 | 0.03 | 0.00 | 60 | 1017.0 |
| 20260906144510 | 31 | 193 | 3.2 | 9.7 | 0.00 | 0.03 | 0.00 | 61 | 1017.0 |
| 20260906143015 | 31 | 280 | 0.0 | 0.0 | 0.00 | 0.03 | 0.00 | 63 | 1016.9 |
| 20260906141514 | 30 | 1 | 0.0 | 0.0 | 0.00 | 0.03 | 0.00 | 66 | 1016.9 |
| 20260906140004 | 29 | 318 | 0.0 | 0.0 | 0.00 | 0.03 | 0.00 | 66 | 1016.8 |
| 20260906134506 | 28 | 199 | 0.0 | 0.0 | 0.00 | 0.03 | 0.00 | 69 | 1016.8 |
| 20260906133012 | 27 | 330 | 0.0 | 0.0 | 0.00 | 0.03 | 0.00 | 71 | 1016.8 |
| 20260906131516 | 26 | 289 | 0.0 | 0.0 | 0.00 | 0.03 | 0.00 | 74 | 1016.8 |
| 20260906130004 | 26 | 119 | 0.0 | 0.0 | 0.00 | 0.03 | 0.00 | 76 | 1016.8 |
| 20260906124505 | 24 | 113 | 0.0 | 0.0 | 0.00 | 0.03 | 0.00 | 79 | 1016.7 |
| 20260906123010 | 22 | 113 | 0.0 | 0.0 | 0.00 | 0.03 | 0.00 | 85 | 1016.5 |
| 20260906121512 | 21 | 113 | 0.0 | 0.0 | 0.00 | 0.03 | 0.00 | 89 | 1016.2 |
| 20260906120025 | 21 | 113 | 0.0 | 0.0 | 0.00 | 0.03 | 0.00 | 89 | 1016.1 |
| 20260906114505 | 20 | 113 | 0.0 | 0.0 | 0.00 | 0.03 | 0.00 | 91 | 1015.9 |
| 20260906113004 | 20 | 113 | 0.0 | 0.0 | 0.00 | 0.03 | 0.00 | 90 | 1015.8 |
| 20260906111510 | 20 | 113 | 0.0 | 0.0 | 0.00 | 0.03 | 0.00 | 90 | 1015.7 |
| 20260906110022 | 20 | 113 | 0.0 | 0.0 | 0.00 | 0.03 | 0.00 | 89 | 1015.7 |
| 20260906104527 | 21 | 113 | 0.0 | 0.0 | 0.00 | 0.03 | 0.00 | 88 | 1015.7 |
| 20260906103013 | 21 | 113 | 0.0 | 0.0 | 0.00 | 0.03 | 0.00 | 88 | 1015.6 |
| 20260906101511 | 21 | 113 | 0.0 | 0.0 | 0.00 | 0.03 | 0.00 | 87 | 1015.6 |
| 20260906100026 | 21 | 113 | 0.0 | 0.0 | 0.00 | 0.03 | 0.00 | 86 | 1015.4 |
| 20260906094524 | 21 | 113 | 0.0 | 0.0 | 0.00 | 0.03 | 0.00 | 85 | 1015.3 |
| 20260906093026 | 22 | 113 | 0.0 | 0.0 | 0.00 | 0.03 | 0.00 | 84 | 1015.1 |
| 20260906091509 | 22 | 113 | 0.0 | 0.0 | 0.00 | 0.03 | 0.00 | 83 | 1015.1 |
| 20260906090016 | 22 | 113 | 0.0 | 0.0 | 0.00 | 0.03 | 0.00 | 81 | 1015.1 |
| 20260906084522 | 23 | 113 | 0.0 | 0.0 | 0.00 | 0.03 | 0.00 | 80 | 1015.1 |
| 20260906083024 | 23 | 113 | 0.0 | 0.0 | 0.00 | 0.03 | 0.00 | 77 | 1015.0 |
| 20260906081526 | 24 | 113 | 0.0 | 0.0 | 0.00 | 0.03 | 0.00 | 76 | 1015.0 |
| 20260906080012 | 24 | 113 | 0.0 | 0.0 | 0.00 | 0.03 | 0.00 | 75 | 1015.0 |
| 20260906074516 | 24 | 113 | 0.0 | 0.0 | 0.00 | 0.03 | 0.00 | 76 | 1015.0 |
| 20260906073024 | 23 | 113 | 0.0 | 0.0 | 0.00 | 0.03 | 0.00 | 78 | 1015.2 |
| 20260906071525 | 23 | 113 | 0.0 | 0.0 | 0.00 | 0.03 | 0.00 | 79 | 1015.3 |
| 20260906070032 | 23 | 113 | 0.0 | 0.0 | 0.00 | 0.03 | 0.00 | 80 | 1015.3 |
| 20260906064509 | 22 | 113 | 0.0 | 0.0 | 0.00 | 0.03 | 0.00 | 81 | 1015.4 |
| 20260906063018 | 22 | 113 | 0.0 | 0.0 | 0.00 | 0.03 | 0.00 | 82 | 1015.5 |
| 20260906061512 | 23 | 113 | 0.0 | 0.0 | 0.00 | 0.03 | 0.00 | 82 | 1015.5 |
| 20260906060006 | 23 | 113 | 0.0 | 0.0 | 0.00 | 0.03 | 0.00 | 81 | 1015.7 |
| 20260906054523 | 23 | 113 | 0.0 | 0.0 | 0.00 | 0.03 | 0.00 | 81 | 1015.6 |
| 20260906053014 | 23 | 113 | 0.0 | 0.0 | 0.00 | 0.03 | 0.00 | 80 | 1015.5 |
| 20260906051504 | 24 | 113 | 0.0 | 0.0 | 0.00 | 0.03 | 0.00 | 79 | 1015.5 |
| 20260906050006 | 24 | 113 | 0.0 | 0.0 | 0.00 | 0.03 | 0.00 | 77 | 1015.5 |
| 20260906044508 | 24 | 113 | 0.0 | 0.0 | 0.00 | 0.03 | 0.03 | 77 | 1015.4 |
| 20260906043021 | 25 | 113 | 0.0 | 0.0 | 0.00 | 0.03 | 0.03 | 75 | 1015.7 |
| 20260906041519 | 25 | 113 | 0.0 | 0.0 | 0.00 | 0.03 | 0.03 | 76 | 1015.7 |
| 20260906040004 | 25 | 113 | 0.0 | 0.0 | 0.00 | 0.03 | 0.03 | 74 | 1015.5 |
| 20260906034505 | 25 | 113 | 0.0 | 0.0 | 0.00 | 0.03 | 0.03 | 74 | 1015.6 |
| 20260906033009 | 26 | 113 | 0.0 | 0.0 | 0.00 | 0.03 | 0.03 | 71 | 1015.4 |
| 20260906031514 | 26 | 113 | 0.0 | 0.0 | 0.00 | 0.03 | 0.03 | 67 | 1015.4 |
| 20260906030019 | 26 | 113 | 0.0 | 0.0 | 0.00 | 0.03 | 0.03 | 69 | 1015.2 |
| 20260906024504 | 26 | 113 | 0.0 | 0.0 | 0.00 | 0.03 | 0.03 | 68 | 1015.0 |
| 20260906023004 | 26 | 113 | 0.0 | 0.0 | 0.00 | 0.03 | 0.03 | 68 | 1014.8 |
| 20260906021520 | 27 | 113 | 0.0 | 0.0 | 0.00 | 0.03 | 0.03 | 68 | 1014.8 |
| 20260906020020 | 27 | 113 | 0.0 | 0.0 | 0.00 | 0.03 | 0.03 | 64 | 1014.4 |
| 20260906014528 | 27 | 113 | 0.0 | 0.0 | 0.00 | 0.03 | 0.03 | 64 | 1014.2 |
| 20260906013010 | 28 | 113 | 0.0 | 0.0 | 0.00 | 0.03 | 0.03 | 63 | 1014.3 |
| 20260906011509 | 27 | 125 | 0.0 | 0.0 | 0.00 | 0.03 | 0.03 | 64 | 1014.2 |
| 20260906010016 | 28 | 125 | 0.0 | 1.6 | 0.00 | 0.03 | 0.03 | 62 | 1014.2 |
| 20260906004521 | 29 | 89 | 1.6 | 9.7 | 0.00 | 0.03 | 0.03 | 61 | 1014.1 |
| 20260906003025 | 30 | 87 | 0.0 | 11.3 | 0.00 | 0.03 | 0.03 | 60 | 1014.5 |
| 20260906001506 | 30 | 221 | 9.7 | 22.5 | 0.00 | 0.03 | 0.03 | 60 | 1014.5 |
| 20260906000010 | 29 | 232 | 9.7 | 20.9 | 0.03 | 0.03 | 0.03 | 73 | 1014.5 |
| 20260905234515 | 28 | 117 | 0.0 | 0.0 | 0.03 | 0.03 | 0.03 | 76 | 1014.0 |
| 20260905233024 | 28 | 117 | 0.0 | 3.2 | 0.03 | 0.03 | 0.03 | 75 | 1013.9 |
| 20260905231530 | 28 | 105 | 0.0 | 9.7 | 0.03 | 0.03 | 0.03 | 68 | 1013.9 |
| 20260905230016 | 32 | 106 | 6.4 | 22.5 | 0.00 | 0.00 | 0.00 | 53 | 1014.0 |
| 20260905224515 | 36 | 297 | 3.2 | 6.4 | 0.00 | 0.00 | 0.00 | 42 | 1013.9 |
| 20260905223020 | 36 | 77 | 1.6 | 4.8 | 0.00 | 0.00 | 0.00 | 43 | 1013.6 |
| 20260905221504 | 36 | 182 | 6.4 | 17.7 | 0.00 | 0.00 | 0.00 | 41 | 1013.7 |
| 20260905220006 | 37 | 100 | 1.6 | 6.4 | 0.00 | 0.00 | 0.00 | 39 | 1013.6 |
| 20260905214511 | 38 | 333 | 3.2 | 6.4 | 0.00 | 0.00 | 0.00 | 39 | 1013.8 |
| 20260905213016 | 38 | 188 | 3.2 | 8.0 | 0.00 | 0.00 | 0.00 | 39 | 1013.7 |
| 20260905211523 | 38 | 167 | 6.4 | 14.5 | 0.00 | 0.00 | 0.00 | 39 | 1014.0 |
| 20260905210007 | 38 | 121 | 1.6 | 9.7 | 0.00 | 0.00 | 0.00 | 38 | 1014.2 |
| 20260905204509 | 38 | 64 | 1.6 | 4.8 | 0.00 | 0.00 | 0.00 | 36 | 1014.4 |
| 20260905203012 | 38 | 63 | 0.0 | 6.4 | 0.00 | 0.00 | 0.00 | 38 | 1014.6 |
| 20260905201520 | 38 | 27 | 1.6 | 9.7 | 0.00 | 0.00 | 0.00 | 37 | 1014.8 |
| 20260905200032 | 37 | 65 | 3.2 | 9.7 | 0.00 | 0.00 | 0.00 | 38 | 1015.0 |
| 20260905194507 | 37 | 65 | 4.8 | 9.7 | 0.00 | 0.00 | 0.00 | 39 | 1015.3 |
| 20260905193005 | 37 | 95 | 3.2 | 6.4 | 0.00 | 0.00 | 0.00 | 40 | 1015.5 |
| 20260905191514 | 36 | 265 | 3.2 | 9.7 | 0.00 | 0.00 | 0.00 | 44 | 1015.6 |
| 20260905190038 | 35 | 115 | 0.0 | 6.4 | 0.00 | 0.00 | 0.00 | 46 | 1015.9 |
| 20260905184536 | 35 | 76 | 1.6 | 9.7 | 0.00 | 0.00 | 0.00 | 46 | 1016.2 |
| 20260905183003 | 37 | 95 | 1.6 | 9.7 | 0.00 | 0.00 | 0.00 | 44 | 1016.2 |
| 20260905181512 | 37 | 271 | 6.4 | 11.3 | 0.00 | 0.00 | 0.00 | 43 | 1016.4 |
| 20260905180021 | 36 | 105 | 1.6 | 6.4 | 0.00 | 0.00 | 0.00 | 43 | 1016.7 |
| 20260905174527 | 36 | 100 | 1.6 | 6.4 | 0.00 | 0.00 | 0.00 | 45 | 1017.0 |
| 20260905173027 | 36 | 117 | 3.2 | 8.0 | 0.00 | 0.00 | 0.00 | 47 | 1017.1 |
| 20260905171508 | 36 | 81 | 1.6 | 8.0 | 0.00 | 0.00 | 0.00 | 48 | 1017.3 |
| 20260905170012 | 35 | 72 | 1.6 | 6.4 | 0.00 | 0.00 | 0.00 | 49 | 1017.4 |